User: anonymous   Login
Location: Banff
(51.1667°N, 115.5667°W)
Time: 03:49:59
(UTC+00:00)
Language:

Transit 2A Rocket - Orbit

View from above orbital plane
View from above orbital plane
View from above satellite
View from above satellite

Ground track
Ground track

The orbit data is extracted from the following two-line orbital elements,

1 00047U 60007C   21138.95012482 -.00000006  00000-0  23786-4 0  9997
2 00047  66.6664 337.9021 0221217  56.7178 305.4904 14.42151685183050
Epoch (UTC): 18 May 2021 22:48:10
Eccentricity: 0.0221217
inclination: 66.6664°
perigee height: 593 km
apogee height: 909 km
right ascension of ascending node: 337.9021°
argument of perigee: 56.7178°
revolutions per day: 14.42151685
mean anomaly at epoch: 305.4904°
orbit number at epoch: 18305

The dashed part of the orbit path shows where the satellite is in the earth's shadow,  

DLR